Flag for Brazil Weather past 2 weeks in Rio de Janeiro, Rio de Janeiro, Brazil

Now
88 °F

Scattered clouds.


Feels Like: 100 °F
Forecast: 76 / 88 °F
Wind: 15 mph from South

Location: Rio De Janeiro Airport

Current Time: Feb 1, 2015 at 6:39:18 PM

Latest Report: Feb 1, 2015 at 6:00 PM


Visibility: N/A

Pressure: 29.92 "Hg

Humidity: 70%

Dew point: 77 °F

Location of Rio de JaneiroLocation

Historic Weather in Rio de Janeiro — Graph

°F

Rio de Janeiro temperature yesterday

Maximum temperature yesterday: 90 °F (at 12:00 PM)
Minimum temperature yesterday: 77 °F (at 6:00 AM)
Average temperature yesterday: 83 °F

Past Weeks' High & Low Weather Summary

 TemperatureHumidityPressure
High100 °F (Jan 29, 2:00 PM)100% (Jan 22, 9:00 PM)30.04 "Hg (Jan 22, 9:00 PM)
Low39 °F (Jan 22, 11:00 PM)32% (Jan 21, 5:00 PM)29.77 "Hg (Jan 29, 4:00 PM)
Average86 °F67%29.89 "Hg
* Reported Jan 17 5:00 PM — Feb 1 5:00 PM, Rio de Janeiro, Weather by CustomWeather, © 2014

Note: Actual official high and low records may vary slightly from our data, if they occured in-between our weather recording intervals... More about our weather records

Advertising

Rio de Janeiro weather history for previous 24 hours

 ConditionsComfort  
Time TempWeatherWind HumidityBarometerVisibility
5:00 PM
Feb 1
90 °FPassing clouds.15 mph63%29.92 "HgN/A
4:00 PM90 °FPassing clouds.14 mph63%29.92 "HgN/A
3:00 PM90 °FPassing clouds.15 mph63%29.95 "HgN/A
2:00 PM90 °FPassing clouds.13 mph63%29.95 "Hg6 mi
1:00 PM90 °FPassing clouds.10 mph63%29.98 "Hg6 mi
12:00 PM90 °FPassing clouds.5 mph63%29.98 "Hg6 mi
11:00 AM84 °FBroken clouds.5 mph74%30.01 "Hg5 mi
10:00 AM84 °FBroken clouds.6 mph74%30.01 "Hg5 mi
9:00 AM79 °FPartly sunny.3 mph89%29.98 "Hg5 mi
8:00 AM79 °FFog.7 mph84%29.98 "Hg3 mi
7:00 AM81 °FPartly sunny.8 mph84%29.92 "Hg4 mi
6:00 AM79 °FPartly cloudy.12 mph84%29.89 "Hg5 mi
11:00 PM
Jan 31
81 °FOvercast.12 mph89%30.04 "Hg5 mi
10:00 PM81 °FLight rain. Mostly cloudy.15 mph84%30.01 "Hg4 mi
9:00 PM82 °FThundershowers. Partly cloudy.15 mph84%30.01 "Hg4 mi
8:00 PM81 °FPassing clouds.16 mph89%29.98 "Hg5 mi
7:00 PM82 °FBroken clouds.16 mph84%29.98 "Hg6 mi
6:00 PM82 °FBroken clouds.15 mph84%29.95 "Hg6 mi
Weather by CustomWeather, © 2014

See weather overviewHow to use our weather pages